Location: Wapato
(46.4478°N, 120.4212°W)
Time: 10:08:43
(UTC+00:00)

Injun/Solrad 3 - Pass Details

Date: 13 May 2026
Orbit: 867 x 989 km, 66.8° (Epoch: 10 June)

Event Time Altitude Azimuth Distance (km) Brightness Sun altitude
Rises 01:23:52 0° 239° (WSW) 3,525 11.8 19.0°
Reaches altitude 10° 01:26:31 10° 247° (WSW) 2,605 11.4 18.5°
Maximum altitude 01:32:10 39° 315° (NW) 1,376 9.8 17.6°
Drops below altitude 10° 01:38:01 10° 24° (NNE) 2,697 10.2 16.6°
Sets 01:40:48 0° 32° (NNE) 3,664 10.8 16.1°
